[[{"header":{"parameterUnit":"m.s-1","parameterCategory":1,"la1":30.2991,"la2":30.254,"lo1":-89.0895,"lo2":-89.0444,"dy":0.0017,"dx":0.0017,"nx":28,"ny":28,"refTime":"2025-03-21T21:00:00:Z","depth":0,"parameterNumber":2,"parameterNumberName":"U-component_of_WINDS"},"data":[0,0,0,0,0,0,0,0,0,0,0,0,0,0,0,0,0,0,0,0,0,0,0,0,0,0,0,0,0,0,0,0,0,0,0,0,0,0,0,0,0,0,0,0,0,0,0,0,0,0,0,0,0,0,0,0,0,0,1.3413,1.3413,0,1.3443,1.3444,1.3444,1.3429,1.3428,1.3428,1.3427,1.3457,1.3459,1.346,0,0,0,0,0,0,0,0,0,0,0,0,0,1.3338,1.3339,1.3413,1.3413,1.3413,1.3443,1.3444,1.3444,1.3429,1.3428,1.3427,1.3427,1.3457,1.3459,1.3461,0,0,0,0,0,0,0,0,0,0,0,0,0,1.337,1.334,1.3413,1.341,1.341,1.3443,1.3444,1.3444,1.343,1.3428,1.3427,1.3426,1.3456,1.3458,1.3461,1.3499,0,0,1.3468,1.3469,0,0,0,0,0,0,0,0,1.3368,1.3372,1.341,1.341,1.341,1.3431,1.3429,1.3463,1.343,1.3422,1.3427,1.3425,1.345,1.3452,1.3461,1.35,1.3502,1.3468,1.3469,1.347,1.3471,0,0,0,0,0,0,0,1.3366,1.3371,1.3425,1.341,1.341,1.3406,1.3409,1.3435,1.3442,1.3423,1.3422,1.3425,1.3449,1.3459,1.3461,1.3502,1.3468,1.347,1.3472,1.3472,1.3571,1.3572,0,0,0,0,0,0,1.3364,1.3369,1.3424,1.3426,1.3386,1.3408,1.3412,1.3426,1.3442,1.3443,1.3426,1.3425,1.3455,1.3459,1.3462,1.3505,1.347,1.3473,1.3474,1.357,1.3571,1.3572,0,0,0,0,0,0,1.3362,1.3369,1.3423,1.3397,1.3404,1.3411,1.3426,1.3427,1.3436,1.3445,1.3446,1.3435,1.3454,1.3459,1.3489,1.3506,1.3474,1.3476,1.3568,1.357,1.3572,1.3593,0,0,0,0,0,0,1.336,1.3368,1.3384,1.3398,1.3405,1.345,1.3428,1.3428,1.344,1.3438,1.3453,1.3454,1.3454,1.3486,1.3491,1.3509,1.3478,1.3567,1.3569,1.3571,1.3591,1.3596,1.36,0,0,0,0,0,1.3358,1.3389,1.3385,1.3391,1.3425,1.3451,1.3455,1.3455,1.3442,1.3456,1.3461,1.3453,1.3504,1.3489,1.3495,1.3514,1.3565,1.3568,1.3571,1.3589,1.3595,1.3599,0,0,0,0,0,0,1.3378,1.3391,1.3386,1.3423,1.3436,1.3448,1.3467,1.3461,1.3478,1.3475,1.3473,1.3477,1.3507,1.3514,1.3497,1.355,1.3532,1.3537,1.3544,1.355,1.3554,1.3551,1.348,0,0,0,0,0,1.3386,1.3407,1.3418,1.3449,1.3456,1.346,1.3472,1.347,1.3483,1.3488,1.3496,1.3508,1.3526,1.3539,1.3556,1.3592,1.3594,1.3608,1.3612,1.3616,1.3619,1.3635,1.3641,1.3581,1.3581,1.3581,0,0,1.3404,1.3414,1.3428,1.3453,1.3463,1.3483,1.3465,1.3488,1.3502,1.3492,1.352,1.3526,1.3539,1.3572,1.3586,1.3578,1.3635,1.3619,1.3622,1.3623,1.3638,1.3644,1.3649,1.3583,1.3583,1.3583,0,0,1.3447,1.3458,1.3484,1.3494,1.3508,1.3511,1.3517,1.353,1.3533,1.3561,1.3553,1.357,1.3602,1.3611,1.362,1.3664,1.3656,1.367,1.3691,1.3707,1.3712,1.3716,1.3729,1.3734,1.3673,1.3673,1.3673,0,1.3468,1.3499,1.3498,1.3521,1.3531,1.3522,1.3547,1.3557,1.3576,1.3583,1.3574,1.3612,1.3621,1.3654,1.3664,1.3673,1.3678,1.3667,1.3712,1.3716,1.3719,1.3732,1.3737,1.3674,1.3674,1.3674,1.3674,0,1.3522,1.3543,1.3562,1.358,1.3593,1.3617,1.3619,1.3632,1.3629,1.3632,1.3659,1.3669,1.3687,1.3695,1.3693,1.3727,1.3721,1.3712,1.3694,1.3726,1.3738,1.3743,1.3676,1.3676,1.3676,1.3675,0,0,1.3579,1.3595,1.3601,1.3608,1.3622,1.3638,1.3661,1.3678,1.3688,1.3702,1.3719,1.3746,1.3736,1.3746,1.3745,1.3759,1.379,1.3748,1.3748,1.3753,1.3825,1.383,1.3836,1.3785,1.3786,1.3787,1.3823,0,1.362,1.366,1.3659,1.3695,1.3713,1.3704,1.3723,1.3733,1.3736,1.3751,1.3755,1.3772,1.376,1.3766,1.378,1.3783,1.3804,1.3781,1.38,1.38,1.3795,1.3842,1.3849,1.3882,1.3828,1.3828,1.3829,0,1.3675,1.3689,1.3726,1.3735,1.3743,1.376,1.3774,1.379,1.38,1.3801,1.3811,1.3807,1.3828,1.3811,1.3839,1.3823,1.3831,1.3833,1.3835,1.3835,1.3815,1.3842,1.3893,1.3897,1.3837,1.3836,1.3835,0,1.3709,1.3737,1.3762,1.3769,1.3781,1.3793,1.3798,1.3808,1.3817,1.383,1.3836,1.3851,1.3859,1.387,1.3869,1.3857,1.3896,1.388,1.3896,1.3896,1.3904,1.3903,1.3954,1.3912,1.3912,1.3912,1.3912,0,1.3754,1.3777,1.3777,1.3793,1.3817,1.3816,1.384,1.3844,1.3852,1.3867,1.3861,1.3875,1.3874,1.3888,1.3887,1.3909,1.3913,1.3913,1.3912,1.3912,1.3912,1.3916,1.3913,1.3913,1.3913,1.3913,1.3912,0,1.3796,1.3798,1.3824,1.3833,1.3835,1.3853,1.3859,1.3873,1.3875,1.3894,1.3898,1.3901,1.3917,1.3918,1.3936,1.3936,1.3961,1.3959,1.3957,1.3956,1.3972,1.3969,1.4026,1.4033,1.3988,1.3988,1.3989,0,1.3824,1.3841,1.3851,1.386,1.3866,1.3882,1.3891,1.3889,1.3899,1.3911,1.3923,1.3938,1.395,1.3975,1.3978,1.3992,1.3989,1.4008,1.3991,1.3989,1.3986,1.3984,1.3985,1.401,1.4011,1.4011,1.4012,0,1.3872,1.3872,1.3886,1.3899,1.391,1.3921,1.393,1.3938,1.3938,1.3949,1.3965,1.3974,1.3992,1.4006,1.4019,1.4023,1.4017,1.4017,1.4021,1.402,1.4018,1.4017,1.3964,1.4015,1.4015,1.4015,1.4015,1.4014,1.3907,1.392,1.3928,1.3943,1.395,1.3959,1.3971,1.3974,1.3987,1.4001,1.4,1.4017,1.4024,1.4041,1.4046,1.4059,1.4052,1.4059,1.406,1.4061,1.4061,1.4017,1.4061,1.4061,1.4061,1.4061,1.4061,0,1.3952,1.3957,1.397,1.3983,1.3995,1.3988,1.3998,1.4007,1.4022,1.403,1.4041,1.4058,1.4071,1.4075,1.4088,1.4097,1.4094,1.41,1.4098,1.4099,1.4068,1.4062,1.4102,1.4102,1.4102,1.4102,1.4102,1.4102,1.3977,1.3999,1.3999,1.4023,1.4027,1.4043,1.4049,1.4057,1.4063,1.4081,1.4092,1.4095,1.41,1.4113,1.4124,1.4125,1.4129,1.4136,1.4135,1.4106,1.4101,1.4097,1.4092,1.4137,1.4137,1.4165,1.4165,1.4165]},{"header":{"parameterUnit":"m.s-1","parameterCategory":1,"la1":30.2991,"la2":30.254,"lo1":-89.0895,"lo2":-89.0444,"dy":0.0017,"dx":0.0017,"nx":28,"ny":28,"refTime":"2025-03-21T21:00:00:Z","depth":0,"parameterNumber":3,"parameterNumberName":"V-component_of_WINDS"},"data":[0,0,0,0,0,0,0,0,0,0,0,0,0,0,0,0,0,0,0,0,0,0,0,0,0,0,0,0,0,0,0,0,0,0,0,0,0,0,0,0,0,0,0,0,0,0,0,0,0,0,0,0,0,0,0,0,0,0,4.1821,4.1822,0,4.1899,4.19,4.1901,4.1858,4.1856,4.1854,4.1852,4.1926,4.193,4.1934,0,0,0,0,0,0,0,0,0,0,0,0,0,4.1629,4.1632,4.1821,4.1822,4.1823,4.1899,4.19,4.1901,4.1858,4.1856,4.1853,4.1851,4.1925,4.193,4.1935,0,0,0,0,0,0,0,0,0,0,0,0,0,4.171,4.1634,4.1821,4.1811,4.1811,4.1899,4.19,4.1901,4.1859,4.1856,4.1852,4.1849,4.1924,4.1929,4.1935,4.2035,0,0,4.1953,4.1956,0,0,0,0,0,0,0,0,4.1705,4.1717,4.1811,4.1812,4.1812,4.1866,4.1859,4.1946,4.186,4.184,4.1852,4.1848,4.1908,4.1915,4.1937,4.2039,4.2042,4.1954,4.1957,4.196,4.1962,0,0,0,0,0,0,0,4.17,4.1713,4.1852,4.1813,4.1813,4.18,4.1808,4.1876,4.1891,4.1842,4.1839,4.1849,4.1908,4.1931,4.1938,4.2043,4.1954,4.1959,4.1963,4.1965,4.2227,4.2231,0,0,0,0,0,0,4.1695,4.1709,4.1849,4.1854,4.175,4.1806,4.1815,4.1851,4.189,4.1893,4.1852,4.1847,4.1923,4.1931,4.1941,4.2058,4.196,4.1966,4.1969,4.2224,4.2228,4.2232,0,0,0,0,0,0,4.1692,4.1708,4.1846,4.1781,4.1797,4.1813,4.1854,4.1855,4.1878,4.1898,4.19,4.1873,4.192,4.1932,4.2012,4.206,4.1968,4.1974,4.222,4.2225,4.223,4.2295,0,0,0,0,0,0,4.1686,4.1707,4.1748,4.1782,4.1801,4.1918,4.1857,4.1858,4.1889,4.1883,4.1918,4.1921,4.1919,4.2003,4.2018,4.2066,4.1978,4.2216,4.2222,4.2228,4.2289,4.2302,4.2313,0,0,0,0,0,4.168,4.1762,4.175,4.1767,4.1852,4.1921,4.1932,4.1929,4.1893,4.1932,4.1944,4.192,4.2053,4.2012,4.2028,4.2079,4.2212,4.222,4.2228,4.2283,4.2299,4.2313,0,0,0,0,0,0,4.1732,4.1767,4.1753,4.185,4.1883,4.1914,4.1963,4.1946,4.1989,4.1982,4.1974,4.1983,4.2065,4.208,4.2033,4.2176,4.2127,4.2138,4.2163,4.2179,4.219,4.2184,4.1983,0,0,0,0,0,4.1755,4.1811,4.1837,4.192,4.1937,4.1948,4.1978,4.1972,4.2005,4.2019,4.2037,4.2068,4.2116,4.2149,4.2194,4.2291,4.2296,4.2334,4.2346,4.2356,4.2365,4.2413,4.243,4.2257,4.2257,4.2257,0,0,4.1803,4.1829,4.1864,4.1931,4.1956,4.2011,4.1959,4.202,4.206,4.2027,4.2103,4.2117,4.2152,4.2239,4.2278,4.2254,4.2414,4.2366,4.2373,4.2377,4.2423,4.2439,4.2454,4.2262,4.2261,4.226,0,0,4.1918,4.1945,4.2015,4.2041,4.2079,4.2085,4.2102,4.2135,4.2143,4.2219,4.2195,4.2241,4.2326,4.235,4.2374,4.2495,4.2473,4.251,4.2573,4.262,4.2634,4.2646,4.2686,4.2701,4.2519,4.2519,4.252,0,4.1972,4.2056,4.2053,4.2115,4.2144,4.2118,4.2187,4.2212,4.2262,4.2282,4.2254,4.2358,4.2379,4.247,4.25,4.2521,4.2537,4.2505,4.2632,4.2644,4.2655,4.2694,4.2709,4.2524,4.2523,4.2523,4.2522,0,4.2119,4.2177,4.2229,4.228,4.2314,4.238,4.2384,4.2419,4.241,4.2418,4.2493,4.2518,4.2567,4.2588,4.2581,4.2678,4.2661,4.2634,4.2583,4.2676,4.2712,4.2727,4.2529,4.2528,4.2527,4.2526,0,0,4.227,4.2317,4.2336,4.2357,4.2396,4.244,4.2502,4.2551,4.258,4.2615,4.2665,4.2736,4.271,4.2737,4.2731,4.2773,4.2864,4.2739,4.274,4.2759,4.2968,4.2987,4.3005,4.285,4.2853,4.2855,4.2964,0,4.2386,4.2497,4.2495,4.2597,4.2649,4.2623,4.2677,4.2706,4.2714,4.2757,4.2766,4.2815,4.2778,4.2794,4.2834,4.2844,4.2905,4.2836,4.2894,4.2896,4.2884,4.3024,4.3045,4.3148,4.2979,4.2981,4.2983,0,4.2536,4.2576,4.2684,4.2713,4.2734,4.2784,4.2826,4.2869,4.2899,4.2902,4.2931,4.2918,4.2978,4.2927,4.3009,4.2962,4.2985,4.2993,4.2997,4.3001,4.2944,4.3029,4.318,4.3195,4.3005,4.3004,4.3002,0,4.2632,4.2713,4.2787,4.2807,4.2843,4.2877,4.2893,4.2921,4.2949,4.2986,4.3004,4.3047,4.307,4.3103,4.31,4.3064,4.3182,4.3132,4.3183,4.3183,4.3208,4.3206,4.3363,4.3227,4.3227,4.3226,4.3226,0,4.276,4.2826,4.2831,4.2876,4.2948,4.2944,4.3014,4.3027,4.3051,4.3096,4.3077,4.3119,4.3115,4.3157,4.3155,4.3221,4.3232,4.3234,4.3232,4.3235,4.3234,4.3249,4.324,4.323,4.323,4.3229,4.3228,0,4.2879,4.2885,4.2964,4.2991,4.2999,4.3051,4.3073,4.3115,4.3121,4.3178,4.3191,4.32,4.3248,4.325,4.3305,4.3304,4.3383,4.3375,4.3373,4.3371,4.3422,4.3416,4.3591,4.3613,4.3465,4.3466,4.3467,0,4.296,4.301,4.3042,4.3072,4.309,4.3138,4.3167,4.3163,4.3193,4.323,4.3267,4.3313,4.335,4.3428,4.3438,4.3479,4.347,4.3528,4.3476,4.3475,4.3467,4.3464,4.3467,4.3538,4.354,4.3541,4.3542,0,4.3101,4.3101,4.3144,4.3187,4.3222,4.3256,4.3287,4.3312,4.3311,4.3346,4.3395,4.3424,4.3479,4.3525,4.3564,4.3578,4.3559,4.3559,4.3572,4.3574,4.357,4.357,4.3399,4.3554,4.3553,4.3552,4.3552,4.3551,4.3202,4.3244,4.3273,4.332,4.3343,4.3372,4.3412,4.3422,4.3464,4.351,4.3504,4.3558,4.3584,4.3635,4.3653,4.3693,4.3673,4.3693,4.3698,4.3703,4.3707,4.3566,4.3701,4.37,4.37,4.37,4.3699,0,4.334,4.3356,4.34,4.3444,4.3481,4.3461,4.3494,4.3525,4.3573,4.36,4.3636,4.3691,4.3734,4.3747,4.3788,4.3818,4.381,4.3828,4.3825,4.3828,4.3724,4.3707,4.3834,4.3834,4.3834,4.3834,4.3834,4.3834,4.3416,4.3485,4.3488,4.3567,4.3583,4.3636,4.3656,4.3682,4.3702,4.3765,4.3801,4.3809,4.3829,4.3871,4.3909,4.3911,4.3926,4.3948,4.3947,4.3849,4.3836,4.3823,4.3806,4.3952,4.3952,4.4046,4.4047,4.4048]}]]